Theta_e
317 323 325 326 325 327 332 333 336 336 336 325 318 322 319 321 320 318 321 320 322 320 320 321 320 321 320 320 320 319 319 319 320 326 328 329 328 321 320 319 321 326 329 332 335 340 341 341 338 338 340 342 341 341 342 342 340 339 339 340 341 342 342 342 341 341 340 340 339 339 339 338 338 337 336 337 337 336 336 336 335 335 335 336 337 336 335 336 336 337 337 338 338 337 334 336 341
318 323 327 329 325 331 341 336 337 337 333 322 317 321 317 319 320 318 321 319 321 319 321 321 321 322 321 321 320 320 318 317 318 324 329 328 322 315 316 316 319 324 327 331 332 337 340 341 340 339 339 341 341 341 341 342 341 339 339 339 340 340 341 342 341 341 341 340 340 340 339 339 338 337 336 337 337 336 337 337 336 336 336 336 336 336 336 337 337 336 337 338 338 338 338 337 340
321 324 327 328 328 332 341 339 339 335 328 321 315 319 318 318 319 318 320 319 320 319 321 321 321 321 321 321 319 319 317 319 319 322 328 327 324 319 317 317 319 320 322 330 332 333 337 340 341 340 339 339 340 340 341 341 341 340 339 339 339 338 339 340 341 341 340 340 340 340 339 338 338 338 337 337 337 337 338 337 337 337 337 337 335 336 337 337 337 336 336 337 337 337 338 339 339
325 326 327 327 337 337 340 342 341 335 321 319 317 317 319 319 319 318 319 319 320 320 320 319 320 319 319 320 317 318 315 319 321 321 327 325 323 320 318 320 318 316 321 333 336 332 333 336 338 340 340 339 339 340 340 340 340 340 340 340 339 339 338 338 339 340 340 340 339 339 339 338 338 338 338 338 337 337 337 338 338 337 337 337 335 336 338 338 338 337 336 336 336 336 337 339 339
323 324 326 326 340 336 332 335 334 331 318 320 320 316 319 318 319 318 318 319 321 321 319 318 319 318 318 318 317 318 316 319 320 320 323 320 318 318 318 319 316 315 323 333 337 335 334 334 334 335 336 337 338 339 339 340 340 339 338 339 340 339 339 338 337 338 339 340 339 339 339 338 338 337 338 338 337 338 337 337 336 336 337 337 334 334 337 338 339 339 338 337 336 335 335 337 338
320 322 325 326 335 329 330 331 323 323 316 321 320 315 319 317 319 319 317 318 320 320 319 318 317 317 317 316 317 317 317 319 319 318 318 317 318 318 318 318 318 318 320 326 329 330 331 331 330 329 330 331 332 333 335 336 338 338 337 337 338 339 339 338 337 337 338 339 339 339 340 339 338 338 338 338 338 338 338 337 336 336 336 336 335 333 334 336 338 339 340 340 339 337 333 333 336
321 323 328 332 332 327 336 331 320 324 318 320 321 316 319 317 319 319 319 318 318 319 318 317 316 317 315 316 318 317 316 317 318 317 317 319 320 319 320 320 321 322 322 323 324 325 326 326 326 327 327 328 329 329 329 330 331 333 335 336 336 337 338 338 337 337 338 339 339 339 339 339 337 338 339 338 338 338 338 338 337 336 335 335 335 334 333 334 336 337 339 340 341 339 336 333 334
322 323 329 337 336 331 336 327 322 327 319 317 320 319 318 317 319 319 320 319 316 317 316 316 318 317 315 316 317 315 314 315 315 316 318 320 319 319 321 321 321 321 321 320 320 322 324 325 326 327 327 328 328 328 329 328 328 327 329 333 335 336 337 337 337 337 338 338 338 339 338 338 338 338 339 338 338 338 338 338 337 336 335 335 334 334 334 333 334 335 336 338 340 340 339 337 335
321 324 331 337 333 332 331 324 321 322 318 318 318 319 319 318 319 318 318 317 316 316 314 315 317 316 315 315 314 313 312 312 312 313 317 316 313 314 315 315 313 312 313 312 312 314 317 320 322 323 324 325 326 327 328 329 328 327 326 328 332 335 336 336 337 337 337 337 338 338 338 338 338 338 338 337 338 338 338 337 337 337 335 335 334 334 333 333 333 333 335 336 338 339 340 339 337
325 323 330 336 329 328 325 321 321 318 316 317 316 317 317 318 319 317 315 314 315 315 314 315 316 314 313 312 311 311 310 310 311 310 311 310 309 310 310 309 307 307 307 308 308 309 311 313 315 317 318 320 322 324 325 326 327 328 327 327 329 331 333 334 335 335 336 337 337 337 337 338 338 338 337 336 337 338 338 337 338 338 336 334 333 333 333 333 333 333 335 335 336 338 339 339 339
331 327 334 337 329 324 319 319 321 317 316 317 317 317 317 318 318 317 316 314 314 315 314 315 315 314 312 311 310 309 308 309 310 309 308 307 307 307 307 307 305 305 305 306 306 306 308 309 310 311 313 315 317 319 321 323 324 325 326 327 328 328 329 329 330 331 332 334 335 336 337 337 337 337 337 336 338 337 337 337 337 338 337 334 332 332 333 333 333 334 335 335 335 336 337 338 339
327 332 338 331 327 324 320 321 319 318 318 317 317 316 316 317 317 316 316 314 313 315 314 315 314 314 312 310 310 308 307 307 308 308 306 306 306 305 305 305 305 304 304 305 304 304 306 307 307 305 308 311 313 316 318 320 322 323 324 325 326 327 327 327 327 327 328 329 330 332 334 335 335 336 337 336 337 337 337 336 336 338 337 334 332 331 331 333 334 334 335 334 334 334 335 336 338
323 329 333 326 331 326 322 323 320 323 320 317 318 316 317 316 316 315 315 314 314 315 313 313 313 313 311 309 309 306 305 305 306 306 305 305 305 305 304 304 304 303 303 303 303 303 304 306 306 302 302 308 311 314 316 317 319 321 323 324 325 326 326 326 326 326 326 326 326 328 329 331 332 333 335 336 336 336 337 336 336 337 337 336 332 331 330 331 334 334 334 333 333 334 334 335 336
325 327 328 328 334 325 322 322 322 327 318 316 319 316 317 315 316 315 316 316 314 314 311 311 312 313 311 310 308 305 305 304 304 304 304 304 304 304 304 304 303 303 303 302 303 303 303 304 305 302 299 302 307 310 313 315 317 319 320 322 323 324 325 326 326 326 326 326 326 326 326 326 327 330 332 334 335 336 336 335 336 336 336 336 333 332 330 330 332 333 333 332 333 333 334 335 335
323 329 330 329 332 325 323 323 323 326 317 318 318 315 317 315 316 316 316 316 312 312 310 309 310 313 311 308 306 305 304 303 303 303 303 303 303 303 303 303 302 302 302 301 301 302 303 302 303 302 299 299 301 304 306 309 312 315 318 319 321 322 323 324 325 326 326 327 328 327 326 324 324 326 329 331 332 334 336 336 336 336 336 336 334 332 330 329 330 332 332 331 332 332 332 334 333
324 332 334 328 330 324 320 322 324 322 316 318 317 316 317 314 317 315 314 314 310 309 309 308 308 309 307 305 305 304 303 303 303 302 302 302 302 302 302 302 302 302 302 301 301 301 302 302 301 302 302 299 298 300 301 302 304 307 310 314 317 319 320 322 323 324 325 326 328 329 329 327 325 324 325 327 329 331 334 336 336 336 336 335 334 332 330 329 330 330 331 331 332 331 331 332 332
334 342 335 329 330 322 317 321 322 320 316 317 316 316 316 314 315 313 313 313 309 307 307 307 306 306 304 304 304 303 303 302 302 302 302 302 302 302 302 302 302 302 302 301 301 300 301 301 301 301 302 301 298 298 299 300 300 300 304 307 309 311 314 318 320 322 323 325 327 329 330 330 329 327 325 324 326 329 331 334 336 336 335 335 334 332 330 329 329 330 331 331 331 330 330 331 331
337 340 331 330 329 320 318 318 318 320 317 315 315 315 316 314 314 313 313 311 308 307 306 305 304 304 303 303 302 302 302 301 301 301 301 301 301 301 301 301 302 302 302 301 300 300 300 300 300 300 301 302 299 298 298 299 299 298 300 304 306 305 306 310 315 319 321 323 325 327 328 329 330 330 329 326 325 327 329 331 334 335 334 334 334 332 331 329 329 329 330 331 330 330 330 330 330
329 331 327 332 329 318 318 315 315 317 315 316 315 315 316 313 313 314 314 312 308 307 306 304 303 302 302 302 301 301 301 301 301 300 300 300 300 300 300 301 301 302 302 301 299 299 299 299 299 299 299 301 299 298 299 299 299 299 297 300 302 300 301 305 309 312 316 319 321 324 325 327 328 329 331 330 328 328 329 330 332 334 334 333 333 333 332 330 329 329 330 330 330 329 329 329 329
326 326 326 333 328 319 318 314 314 315 315 316 316 315 315 313 313 314 314 312 309 307 306 304 303 302 302 301 300 300 300 300 300 300 300 299 299 299 300 300 300 301 301 300 299 298 299 298 298 299 298 299 299 298 298 298 300 300 298 299 299 298 298 302 306 310 312 314 317 321 323 324 326 328 329 330 330 330 330 331 331 333 334 333 333 333 332 330 329 328 329 330 330 329 329 329 329
324 323 325 329 323 318 318 315 314 315 315 316 315 316 315 313 313 313 314 313 309 307 306 303 302 301 301 301 300 299 299 299 299 299 299 299 298 298 298 299 299 299 300 300 299 298 298 297 298 298 297 299 298 298 298 298 299 300 299 299 300 299 298 298 303 310 313 313 314 316 320 323 324 325 326 328 330 331 331 331 332 332 333 333 332 332 331 330 329 329 329 330 330 329 329 329 328
320 321 321 321 318 318 318 316 316 316 316 317 315 314 313 313 313 312 314 313 308 305 304 302 301 301 300 300 299 299 298 298 298 298 298 298 298 297 297 297 297 297 298 299 299 297 298 297 297 298 297 298 297 297 298 297 299 299 298 299 300 300 300 299 302 308 309 308 312 314 317 320 322 324 325 326 328 330 331 332 332 332 333 333 332 332 332 331 330 329 329 329 329 329 329 329 328
317 319 318 317 317 317 316 316 317 316 316 315 313 313 312 314 312 309 309 308 305 303 302 301 300 300 299 299 298 299 298 298 298 298 297 298 297 297 297 297 297 296 296 298 298 297 297 297 297 298 297 297 297 296 297 297 298 298 298 298 299 300 301 301 302 303 301 302 310 314 316 318 320 321 322 323 324 326 329 330 331 332 333 333 332 332 332 332 330 329 329 329 329 329 328 328 328
318 320 318 316 317 316 316 316 316 317 314 313 313 313 313 314 312 307 305 304 303 302 301 300 299 299 299 298 298 298 298 298 298 298 297 298 297 297 297 296 296 296 296 296 297 297 297 296 296 298 297 297 296 296 296 296 297 297 297 297 297 298 299 301 302 300 299 303 307 310 312 315 317 318 319 321 322 323 325 327 329 329 331 332 333 333 332 332 331 330 329 329 329 329 329 328 328
320 321 318 316 317 316 317 316 315 316 313 314 315 315 314 313 310 306 304 303 302 301 300 299 299 299 298 298 298 297 297 297 298 298 298 297 297 297 297 297 296 296 296 296 296 296 296 295 296 297 297 296 295 295 295 296 296 296 296 296 296 297 298 300 300 300 301 303 303 303 304 308 314 317 319 320 322 323 323 324 326 327 328 330 331 332 333 332 331 330 329 329 330 329 329 328 329
319 318 316 315 316 316 315 314 314 315 313 313 314 315 314 311 308 306 304 303 302 301 300 300 299 298 299 299 298 297 296 297 297 298 298 297 297 296 297 297 296 296 296 296 295 296 295 294 295 296 296 295 294 294 295 295 295 295 295 295 296 296 297 298 299 299 301 301 300 299 299 304 310 311 312 315 317 319 320 321 324 326 327 328 329 330 331 333 332 331 330 330 330 329 329 328 328
317 316 316 316 316 315 314 314 314 315 314 313 313 314 315 313 311 307 304 303 302 301 300 300 299 299 299 299 299 297 297 297 297 297 297 297 297 296 296 296 295 295 296 295 295 295 294 294 294 295 295 294 294 294 294 295 295 295 295 295 295 295 295 297 298 298 299 300 300 298 298 301 303 302 302 305 311 315 317 318 320 324 326 327 327 327 328 330 331 331 330 330 329 329 329 328 328
315 314 314 315 315 314 314 314 314 314 313 315 314 313 313 313 312 306 304 303 301 301 300 300 299 299 299 300 299 297 296 297 296 297 297 296 296 295 295 295 295 295 295 294 294 294 294 294 294 294 294 294 294 294 294 294 295 294 294 294 294 295 295 295 297 297 297 298 299 298 297 297 298 299 299 301 307 313 315 315 316 319 324 326 326 326 326 328 330 331 330 329 329 329 329 328 329
314 314 315 314 313 313 314 314 315 314 314 317 315 314 316 313 310 306 304 303 302 301 300 300 299 300 299 299 299 297 296 297 296 296 296 296 296 295 294 295 294 294 294 294 294 294 293 293 294 294 294 294 294 294 294 294 294 294 294 294 294 294 295 295 296 296 296 297 299 299 298 297 297 298 299 301 305 309 312 313 313 314 319 324 326 326 326 326 328 330 330 329 329 329 328 328 329
314 314 315 315 314 316 316 313 315 313 314 318 313 313 319 313 307 306 304 303 302 301 301 300 300 300 300 299 299 298 296 296 296 295 296 295 295 294 294 294 294 294 294 294 294 293 293 293 293 293 293 293 293 293 294 294 294 293 293 293 294 294 294 294 295 295 296 297 298 298 298 297 297 297 299 301 302 304 307 309 311 312 314 320 324 325 326 325 326 328 329 329 328 328 327 328 328
315 313 317 321 317 320 318 313 315 313 314 318 311 313 319 313 307 306 304 303 302 302 301 300 300 300 299 299 299 298 296 296 296 295 295 295 294 294 294 294 293 293 293 293 293 293 293 293 293 293 293 293 293 293 293 293 293 293 293 293 293 293 293 294 294 295 295 296 297 297 297 297 297 297 299 300 300 301 303 306 309 310 310 315 321 324 325 325 325 325 327 328 327 326 326 327 327
316 314 323 328 320 319 318 313 315 313 314 316 310 315 319 310 307 306 304 303 302 301 300 300 300 299 298 298 298 298 297 296 295 295 295 294 294 294 294 293 293 293 293 293 293 293 293 293 293 293 293 293 293 293 293 293 293 293 293 293 293 293 293 293 294 294 295 295 296 296 296 297 297 297 298 299 299 301 301 304 308 309 308 310 316 322 324 324 324 324 325 326 325 325 325 326 326
324 319 321 324 318 316 316 314 316 315 314 313 310 315 317 311 308 307 305 303 301 301 300 299 298 297 297 297 298 298 297 296 295 295 294 294 293 293 293 293 293 293 293 293 292 293 293 293 293 293 293 293 293 293 293 293 293 293 293 292 293 293 293 293 293 293 294 295 295 296 296 296 296 297 298 299 299 300 300 302 307 306 303 304 309 318 324 324 324 323 323 325 325 324 324 324 324
329 324 319 319 317 313 314 314 315 315 313 313 312 312 315 312 309 306 304 302 301 300 300 299 298 297 297 297 297 298 297 297 295 294 294 293 293 293 293 292 292 292 292 292 292 292 292 292 292 292 292 292 292 292 292 292 292 292 292 292 292 292 292 293 293 293 293 294 295 296 296 296 296 297 298 298 299 300 299 301 302 300 298 300 303 312 321 324 323 323 323 323 324 324 323 323 323
323 323 319 318 318 312 312 313 313 314 313 313 313 312 313 310 307 306 304 302 301 300 299 299 298 297 298 298 297 297 297 297 296 295 293 293 293 293 292 292 292 292 292 292 292 292 292 292 292 292 292 292 292 292 292 292 292 292 292 292 292 292 292 292 293 293 293 293 294 295 295 295 296 297 298 297 298 299 299 300 299 297 298 301 302 307 317 324 323 322 322 323 323 323 323 323 323
318 317 317 316 315 312 312 312 313 312 312 313 312 312 312 308 307 306 304 302 301 300 299 299 298 297 298 298 298 298 298 296 295 295 293 293 293 293 292 292 292 292 292 292 292 292 292 292 292 292 292 292 292 292 291 291 291 291 291 291 292 292 292 292 292 293 293 293 293 294 294 295 296 297 297 297 298 299 299 299 298 297 299 304 306 306 312 321 323 321 322 322 321 322 322 322 322
313 314 315 315 315 313 312 313 312 310 310 313 313 312 312 309 307 306 303 302 301 300 300 299 297 297 298 298 298 298 297 295 295 294 293 293 293 293 292 292 292 292 292 292 292 292 292 292 292 292 292 292 291 291 291 291 291 291 291 291 291 291 291 292 292 292 292 293 293 293 294 294 295 297 297 297 298 299 299 299 299 297 298 303 307 306 307 315 321 321 320 321 321 320 320 321 321
312 314 314 316 316 314 313 313 310 308 310 314 313 311 311 310 308 305 302 301 300 300 299 298 297 297 298 298 297 297 296 295 295 294 293 293 293 292 292 292 292 292 292 292 292 291 291 291 291 291 291 291 291 291 291 291 290 290 290 290 291 291 291 291 291 291 292 292 293 293 294 294 295 296 296 297 298 299 299 299 299 298 298 300 303 303 303 309 316 320 320 319 320 320 319 319 319
314 315 314 315 317 316 315 314 310 308 309 314 314 310 309 310 309 305 301 301 300 300 299 297 296 297 298 297 297 296 296 296 296 294 293 293 293 292 292 292 292 292 291 291 291 291 291 291 291 291 290 290 290 290 290 290 289 289 289 289 289 289 289 289 289 289 290 292 292 293 293 294 294 295 296 297 298 298 298 299 299 298 297 298 300 302 302 304 309 316 320 318 319 319 318 318 318
315 316 315 315 317 316 316 314 312 309 308 311 312 308 307 307 306 303 301 301 301 300 299 299 298 298 298 298 298 297 296 296 296 295 294 293 292 292 292 292 291 291 291 291 291 291 291 291 290 290 290 290 290 290 289 288 288 288 287 287 286 286 286 286 286 287 288 290 291 292 293 293 294 294 295 296 297 297 298 299 299 298 297 296 298 301 303 303 305 311 318 318 318 318 316 316 318
319 319 315 315 316 315 316 315 312 310 311 312 309 308 310 308 305 303 300 300 300 299 298 299 299 299 299 298 299 299 297 296 296 296 294 292 292 292 291 291 291 291 291 291 291 290 290 290 290 290 289 289 289 288 288 287 286 286 285 285 284 284 284 284 285 286 287 287 288 289 291 292 293 294 295 295 295 297 297 298 299 298 297 296 297 300 302 303 304 307 315 318 318 317 316 316 317
320 322 319 319 316 314 315 315 313 311 313 314 308 310 313 308 305 303 300 299 299 297 297 297 298 298 298 297 297 298 298 296 295 294 293 292 291 291 291 291 291 290 290 290 290 290 290 289 289 289 288 288 287 287 286 285 285 284 284 283 283 283 284 284 285 285 285 285 285 286 288 290 292 293 294 294 295 296 297 298 299 298 297 296 296 297 300 303 303 305 312 317 317 317 317 316 316
318 320 319 317 312 310 313 312 312 313 314 312 307 310 311 306 303 302 299 299 299 297 297 296 296 296 297 297 297 297 296 295 295 294 292 291 291 291 290 291 290 290 290 290 290 289 289 289 289 288 287 286 286 285 285 284 284 283 283 282 282 283 283 284 284 284 284 284 284 285 286 288 290 292 293 294 295 296 297 298 299 298 297 296 295 294 296 300 303 304 307 313 317 317 317 316 316
319 316 313 311 309 310 313 312 311 311 311 310 308 309 308 307 306 301 298 298 298 297 296 295 295 295 296 297 297 296 296 295 296 297 294 290 290 291 290 290 290 290 290 290 289 289 288 288 288 287 286 285 285 284 284 283 283 283 282 282 282 282 283 284 284 283 283 283 284 285 285 286 288 290 292 294 294 295 296 298 298 298 297 296 295 294 293 297 302 304 304 307 314 318 316 317 317
318 314 310 309 310 311 312 311 311 309 308 308 310 309 309 312 310 301 297 297 297 296 295 294 294 295 296 296 296 296 295 296 296 296 294 290 290 291 290 290 290 290 290 289 288 288 288 287 287 286 285 285 284 283 283 283 282 282 282 282 282 282 282 282 282 282 283 282 283 283 284 284 286 287 289 291 293 293 294 297 298 298 297 296 295 293 293 295 300 304 304 303 309 316 317 316 317
313 312 311 311 312 311 310 310 309 307 308 309 310 309 309 312 309 300 297 298 297 296 295 294 294 295 296 296 296 296 295 296 296 293 290 290 291 290 290 290 290 290 289 288 288 287 287 286 286 285 285 284 283 283 282 282 282 282 281 281 281 281 281 281 281 281 282 282 282 283 283 284 285 286 288 289 291 293 294 297 298 298 297 297 295 294 293 293 297 301 304 303 304 311 316 317 316
309 309 311 313 314 312 309 311 309 308 313 313 310 310 308 310 308 300 298 299 298 296 294 293 294 295 296 295 296 296 295 296 296 293 290 290 291 290 290 290 290 289 288 288 287 286 286 285 285 285 284 283 283 282 282 281 281 281 281 281 280 280 280 280 280 280 281 281 282 282 282 282 283 285 287 288 289 292 295 297 298 297 297 297 295 294 293 293 294 298 302 303 303 305 311 316 316
310 311 312 312 316 316 313 313 311 311 318 314 306 308 307 308 309 302 299 299 298 296 294 293 294 294 295 295 296 296 296 296 295 294 292 290 289 290 290 289 289 289 288 287 286 286 285 285 284 284 283 283 282 281 281 281 281 280 280 280 280 280 280 280 280 280 280 281 281 281 281 281 282 284 285 286 286 289 292 296 297 297 297 297 296 294 293 293 293 295 299 302 303 302 304 311 316
313 312 312 313 317 319 317 316 312 311 317 311 303 305 306 305 308 307 302 298 296 295 294 293 294 294 295 295 295 296 296 295 294 294 294 291 289 288 289 289 289 288 287 286 286 285 284 284 284 283 283 282 282 281 281 280 280 280 279 279 279 279 279 279 280 280 280 281 281 280 280 280 281 282 283 284 284 286 288 293 297 297 297 297 296 295 293 293 293 294 297 300 302 302 301 306 314
311 311 314 317 316 315 315 315 314 315 317 310 302 303 305 306 307 305 300 295 294 294 293 294 294 294 295 295 295 296 295 295 294 294 295 292 289 288 289 289 288 287 287 286 285 284 284 283 283 282 282 282 281 281 280 280 279 279 279 278 278 278 279 279 279 279 280 280 280 280 280 280 280 281 282 282 283 285 286 289 294 297 297 297 296 295 294 293 293 293 296 299 301 302 301 302 309
310 312 314 315 314 316 317 315 315 317 316 310 303 304 309 310 304 299 295 293 293 294 294 296 295 295 296 295 295 296 294 294 294 294 294 291 289 289 289 288 288 287 286 285 285 284 283 283 282 282 282 281 281 280 280 279 279 279 278 278 278 278 278 278 278 278 278 279 279 279 279 279 279 280 280 282 283 284 285 287 291 296 297 297 297 296 294 293 293 292 294 297 300 301 302 301 305
309 308 309 310 313 314 314 312 310 309 308 307 304 306 309 306 298 293 294 293 293 294 294 295 295 295 296 295 295 294 293 293 294 294 293 290 288 289 289 288 287 286 285 285 284 283 283 282 282 281 281 281 280 280 279 279 278 278 278 278 277 277 277 277 277 277 277 278 278 278 279 279 278 279 280 281 282 283 284 286 289 294 297 297 297 296 294 293 293 292 293 295 298 301 302 302 303
308 305 308 310 310 309 308 309 306 304 306 307 306 306 306 303 298 293 293 293 292 293 294 293 294 295 295 295 294 294 293 293 293 293 292 290 288 288 288 287 286 285 285 284 284 283 282 282 281 281 280 280 280 279 279 279 278 278 277 277 277 277 276 276 276 276 276 277 277 277 277 277 278 278 279 280 281 282 284 285 287 292 295 297 297 296 294 293 292 293 292 294 297 300 302 302 302
307 308 309 306 305 304 306 308 306 304 307 307 305 304 304 305 303 295 293 294 292 292 293 293 294 294 294 295 294 293 292 293 293 292 291 289 288 288 288 287 286 285 285 284 283 283 282 281 281 280 280 279 279 279 278 278 278 277 277 276 276 276 276 275 275 275 275 275 275 276 276 276 277 278 278 279 280 281 283 284 286 289 293 296 296 295 294 293 292 292 292 293 295 299 302 303 302
305 307 305 304 306 305 305 307 307 308 309 309 308 305 303 304 303 296 293 293 292 292 293 293 293 294 294 294 293 292 293 293 293 293 292 289 287 288 287 286 285 285 284 284 283 282 281 281 280 280 279 279 279 278 278 278 277 276 276 276 276 275 275 275 275 274 274 274 274 275 275 276 276 277 278 280 280 281 281 282 285 288 291 294 296 295 294 293 292 292 292 293 294 297 301 303 303
301 301 299 301 305 305 305 305 306 309 310 310 310 308 306 305 303 298 295 294 292 292 293 294 293 293 294 294 293 293 293 293 293 293 292 289 287 287 287 285 285 284 284 283 282 281 281 280 280 279 279 278 278 277 277 277 276 276 276 276 275 275 275 275 274 274 274 274 274 274 274 275 276 276 278 279 280 280 280 281 284 287 290 292 294 295 294 293 292 291 292 293 294 296 299 302 304
300 300 299 299 300 302 306 303 303 305 307 307 308 308 309 306 302 300 298 294 293 293 294 295 294 294 293 293 294 294 293 294 293 292 291 288 286 286 286 285 284 284 283 282 281 281 280 279 279 278 278 278 277 277 276 276 276 276 275 275 275 275 274 274 274 273 273 273 273 273 274 274 275 276 277 278 278 279 279 280 282 285 287 290 292 294 294 293 292 291 292 292 293 295 297 301 303
302 301 302 301 300 302 306 305 303 303 304 306 307 308 309 304 298 298 297 294 294 294 294 295 295 294 293 294 294 294 293 293 292 292 291 288 285 285 285 284 284 283 282 282 281 280 279 279 278 278 277 277 276 276 276 275 275 275 275 275 275 274 274 274 273 273 273 273 272 273 273 274 275 275 276 276 277 278 279 280 281 282 284 287 290 293 293 292 291 291 291 292 292 294 296 298 302
Wind_Speed
9 5 7 7 7 8 6 1 3 2 3 3 0 2 3 3 4 4 6 5 3 1 1 2 2 1 2 2 3 5 5 3 1 4 3 2 8 18 20 21 20 19 17 15 12 11 14 14 11 5 3 4 5 5 6 6 5 7 9 8 8 8 9 8 9 9 9 9 9 9 10 10 10 10 10 11 10 11 11 11 12 12 14 14 14 14 12 11 12 12 12 12 12 13 14 13 13
8 5 6 6 6 3 2 2 4 2 5 4 3 3 1 4 5 5 5 4 1 2 2 3 2 3 3 2 6 7 7 7 5 5 5 6 11 23 26 23 21 20 19 16 14 11 12 14 13 9 5 6 6 5 6 7 7 7 9 9 9 10 10 10 10 10 10 10 10 11 10 11 12 12 12 12 12 12 12 13 13 12 12 13 14 14 13 12 12 12 12 12 13 13 14 14 14
9 6 6 6 4 0 1 3 4 2 5 4 3 3 1 5 5 3 5 5 2 1 3 4 3 2 4 6 5 6 5 8 11 4 4 13 14 21 26 23 22 20 20 15 13 13 12 14 14 12 9 7 8 7 7 8 9 8 9 10 10 11 12 12 12 12 11 12 12 12 12 12 13 13 13 13 13 14 14 14 14 13 12 13 14 13 12 12 12 12 12 12 13 13 14 14 15
7 6 5 5 2 2 3 3 2 4 4 3 2 4 3 4 4 3 3 5 4 4 4 4 3 1 4 7 3 5 6 6 13 9 3 15 16 19 23 22 24 20 22 15 11 13 12 14 15 14 11 9 9 9 9 9 10 10 10 11 12 12 12 13 14 14 14 14 14 14 14 14 14 14 14 14 14 15 15 16 15 14 13 14 14 13 13 13 13 12 12 12 12 13 15 15 15
6 6 3 2 3 2 2 2 1 5 3 3 3 2 2 4 5 5 1 3 6 6 4 3 2 4 5 7 5 3 4 2 11 16 6 15 20 21 23 25 28 26 26 19 15 16 15 17 18 17 14 12 11 11 12 12 12 12 12 13 14 14 14 14 15 16 16 16 16 16 16 15 15 15 16 16 15 16 17 18 17 16 16 16 15 14 15 15 14 14 14 13 12 13 14 15 16
8 7 1 1 2 1 2 3 3 5 1 3 5 2 1 4 4 4 2 2 5 6 4 4 2 2 6 7 9 6 7 3 6 14 12 17 22 23 27 29 32 31 29 25 22 22 20 20 19 19 18 17 15 14 14 14 15 15 15 15 15 16 16 15 16 17 16 17 18 17 16 17 17 17 17 17 17 17 18 19 19 18 18 18 17 16 16 16 16 16 15 14 14 14 14 15 16
8 6 2 3 2 1 4 3 3 3 2 3 6 4 3 4 2 4 4 2 3 6 5 3 3 4 4 5 10 11 18 13 6 12 16 21 24 25 28 29 32 31 30 28 27 25 23 23 21 21 21 21 20 18 17 16 15 16 18 17 17 17 17 17 18 17 17 17 18 18 17 19 19 18 18 18 18 17 18 19 19 20 19 20 20 19 18 18 18 17 17 16 15 15 15 15 16
4 2 1 4 2 2 3 2 2 3 2 3 5 5 5 3 2 3 2 2 3 3 4 4 5 7 6 9 9 10 21 20 15 19 19 24 28 27 28 28 31 31 29 28 27 26 25 26 25 24 24 24 24 23 22 20 18 16 16 18 19 18 18 18 19 18 18 19 19 19 19 20 20 19 19 20 19 19 19 20 20 21 21 21 22 22 21 20 19 18 18 17 16 15 16 16 17
1 1 2 4 2 3 2 2 2 2 3 4 5 4 3 2 3 3 3 4 3 4 4 4 6 7 8 14 8 6 18 19 22 29 28 30 32 31 32 32 33 33 32 32 30 28 27 27 27 27 26 25 25 24 24 24 23 20 16 16 18 19 19 19 19 19 20 20 20 20 21 20 20 21 21 22 21 20 21 22 21 21 22 22 22 22 22 21 20 19 18 18 17 15 16 18 18
1 2 2 3 2 3 2 1 2 3 3 4 5 4 1 1 3 4 5 5 2 4 5 2 7 9 11 11 6 5 14 18 26 34 34 34 34 35 35 36 36 36 35 35 35 34 32 30 29 29 29 27 26 25 24 25 24 24 22 18 17 19 20 21 21 21 21 21 21 21 21 21 22 23 23 23 23 23 23 22 21 21 22 22 22 21 21 21 21 20 19 19 19 17 16 17 19
2 3 2 4 4 3 1 2 3 4 3 3 3 1 1 1 3 4 5 5 3 5 4 4 5 9 13 8 4 9 18 25 30 31 33 34 35 35 35 35 35 37 37 37 37 37 36 35 33 32 31 29 28 27 26 26 26 25 25 23 20 19 20 22 23 24 25 24 24 23 22 23 24 25 25 24 23 24 24 23 22 21 21 23 22 21 20 20 20 20 20 20 21 20 18 17 18
3 4 4 4 2 1 1 4 5 5 2 3 2 2 2 4 4 3 4 5 4 7 4 3 3 7 9 6 3 11 22 28 27 28 31 33 34 34 34 34 34 36 37 37 37 38 37 37 37 36 34 30 28 27 27 27 27 26 25 25 24 23 22 22 23 24 26 27 27 27 26 25 25 25 25 24 24 26 25 24 23 21 21 22 23 22 22 20 20 20 20 21 22 21 21 19 18
2 1 4 2 3 2 1 4 5 4 4 0 2 2 2 5 4 3 5 5 5 7 6 4 2 6 7 5 4 7 17 25 25 28 30 31 32 32 32 33 34 35 36 37 37 38 38 37 37 39 38 33 31 29 28 28 27 27 26 25 25 25 25 25 25 24 25 25 27 28 29 28 28 28 28 27 27 28 28 27 25 23 22 22 24 24 23 22 21 21 21 22 23 22 22 21 19
1 1 4 1 1 0 2 4 3 4 2 3 2 1 2 3 3 5 6 7 5 5 7 9 3 8 5 3 4 4 11 22 26 27 28 30 30 31 31 32 33 34 35 37 37 37 38 37 36 37 39 37 35 33 31 30 28 27 27 26 26 26 26 26 27 27 27 26 26 26 28 30 31 31 31 31 31 30 30 29 27 25 24 24 25 25 25 24 23 23 23 24 24 24 23 22 21
1 1 4 1 3 2 0 3 3 5 3 2 1 2 4 1 3 6 5 7 6 2 8 15 8 5 4 5 4 4 11 22 26 28 29 30 30 30 30 30 32 33 34 36 36 35 35 36 35 35 38 39 37 34 33 31 30 29 27 27 27 27 27 27 27 28 29 28 27 26 26 28 30 32 32 33 33 33 32 31 30 29 28 28 28 27 26 26 25 25 25 26 26 26 24 23 23
2 2 4 2 3 2 0 2 3 5 2 1 3 4 6 3 2 5 1 7 8 9 10 12 10 8 7 9 7 7 15 23 27 29 31 30 29 29 30 30 30 31 33 34 36 35 34 34 35 34 34 37 37 35 34 33 32 30 28 27 27 27 27 27 28 28 29 29 28 27 27 27 28 31 33 34 35 35 35 33 32 32 32 32 31 29 28 27 27 27 27 28 28 27 26 25 25
3 4 4 2 1 0 1 2 3 4 2 0 4 4 6 2 3 3 3 11 12 12 14 10 11 13 11 12 12 15 20 25 30 32 31 28 27 27 29 30 29 30 32 33 34 35 35 34 35 35 33 34 37 36 34 33 33 33 31 29 28 28 28 28 28 28 29 30 29 28 28 28 29 30 31 33 35 36 37 36 34 34 34 34 33 31 29 29 29 30 29 29 29 27 26 26 25
4 3 3 2 1 0 1 1 2 4 3 1 2 2 6 2 2 1 5 13 14 13 14 12 14 14 14 16 17 20 24 28 30 30 27 24 23 23 24 26 27 27 29 31 33 33 34 33 34 35 34 33 38 38 35 34 33 34 33 30 30 31 30 29 28 28 30 31 31 30 30 30 30 32 32 31 33 36 38 37 36 35 36 36 35 33 31 31 31 32 31 31 30 28 28 27 26
3 2 2 2 3 1 2 4 4 4 4 1 2 2 6 2 1 2 5 7 11 13 9 10 14 11 13 16 19 23 26 27 26 25 24 22 21 19 19 22 24 24 24 27 29 30 31 32 32 34 34 32 36 39 37 36 33 33 34 31 32 33 32 31 29 29 29 30 31 32 32 32 32 33 33 33 32 34 37 37 37 36 37 37 37 36 34 33 33 33 34 32 30 29 29 29 28
1 3 2 5 4 2 1 6 5 4 5 2 4 2 4 2 1 3 6 6 8 10 6 8 11 9 9 11 17 22 23 24 23 22 22 21 21 20 19 20 22 23 22 23 26 29 30 31 31 31 33 31 34 38 37 37 33 32 34 32 32 33 33 32 31 31 30 30 30 32 32 33 33 33 33 34 34 34 35 36 37 37 37 38 38 37 36 35 34 35 35 33 31 31 31 29 29
0 3 3 7 2 3 3 5 6 5 6 3 3 4 4 4 2 3 7 8 6 5 6 10 12 10 9 8 13 18 19 19 20 20 19 19 20 20 20 19 21 22 21 22 26 29 29 31 30 29 32 30 33 36 35 36 32 32 34 33 32 32 33 33 32 32 32 33 33 33 32 32 33 34 33 32 33 35 36 36 38 38 38 39 38 37 37 36 36 37 36 34 33 33 32 30 30
1 1 4 4 2 2 5 5 6 5 6 6 5 5 3 3 4 3 7 8 4 5 9 12 12 10 10 9 11 14 15 15 16 18 17 16 17 18 20 20 22 24 23 22 25 28 28 30 28 27 30 28 31 33 32 33 31 31 33 32 32 32 31 32 32 32 32 34 34 34 33 33 34 34 34 32 32 34 36 36 38 39 40 40 39 38 38 38 38 38 37 36 35 34 33 32 31
1 4 2 2 3 1 4 5 5 6 8 5 3 1 2 4 6 6 11 10 7 9 11 13 12 13 15 14 12 11 11 12 14 16 17 16 16 17 19 21 21 23 25 22 23 25 26 29 27 25 28 28 30 31 31 31 30 30 32 31 32 32 32 30 31 33 34 34 33 34 34 33 34 35 35 35 34 34 35 34 35 37 40 41 41 40 39 39 39 38 38 37 36 35 34 33 32
4 3 3 2 2 2 3 5 5 7 7 2 2 3 2 5 6 8 13 11 11 12 12 15 15 16 18 14 12 11 10 11 13 14 16 17 16 15 17 21 21 21 24 23 23 25 25 29 28 25 27 29 31 32 31 31 30 30 31 31 32 31 32 30 30 32 33 32 31 32 33 34 34 35 37 37 35 34 35 36 35 35 36 40 41 41 40 39 40 39 38 38 37 36 36 34 34
4 2 3 1 3 2 2 6 6 5 4 2 5 6 5 4 10 10 11 11 11 12 13 14 15 15 14 11 10 9 10 11 12 13 14 16 17 16 15 19 21 21 23 24 24 24 25 29 28 25 28 31 33 33 33 33 32 33 33 33 32 31 31 29 31 31 29 31 32 32 33 34 34 34 36 36 36 35 35 35 36 36 36 37 38 40 41 41 40 39 39 38 38 37 36 36 35
2 1 2 2 3 3 1 3 4 3 1 3 6 5 4 6 12 9 9 11 11 12 12 11 12 12 10 9 8 8 9 11 11 11 12 14 17 18 17 19 22 22 23 24 24 23 25 29 29 27 29 33 35 36 36 36 35 36 37 37 36 34 33 32 32 31 29 30 32 34 34 33 32 33 35 36 36 37 37 36 35 36 37 37 36 37 39 41 41 40 40 39 39 38 37 36 36
2 2 2 3 4 3 1 2 2 2 1 2 4 2 4 2 7 5 7 10 12 12 11 10 11 10 9 7 7 9 10 11 12 11 11 13 16 19 19 19 22 23 23 25 24 23 26 30 30 29 31 34 36 37 37 37 37 38 40 40 39 39 38 37 35 33 31 30 31 33 34 33 34 36 36 36 35 36 37 37 37 36 37 39 38 38 38 39 41 41 41 41 40 39 37 35 35
2 3 4 6 3 2 2 3 2 1 1 2 4 2 3 2 4 10 11 10 12 14 12 10 11 9 8 7 6 7 9 12 14 12 11 12 14 17 18 18 21 23 24 25 24 25 29 31 31 30 32 35 36 37 37 37 36 38 40 41 41 41 41 40 38 36 35 34 32 32 33 34 36 37 36 36 34 35 36 36 37 37 38 39 38 40 40 40 41 42 42 42 41 38 36 35 35
3 4 2 5 3 0 3 3 3 3 1 2 4 3 2 1 7 14 13 10 11 13 12 9 10 8 7 7 5 6 7 11 14 12 9 9 12 15 18 19 21 22 24 25 25 27 31 33 33 32 34 37 37 38 38 37 37 38 39 40 41 43 42 41 40 40 39 36 34 33 33 34 36 37 36 35 34 34 35 35 37 38 38 38 38 39 41 42 42 44 43 40 40 37 34 34 34
1 2 3 2 6 4 6 3 2 4 2 3 4 2 5 2 10 15 12 12 13 12 10 9 8 7 6 6 5 5 6 9 10 10 9 9 12 16 18 20 22 23 25 27 27 31 34 34 35 35 37 39 39 39 38 38 39 39 39 39 40 41 42 42 41 41 41 39 37 36 34 35 36 37 36 34 34 34 34 34 35 37 37 38 39 38 40 44 43 42 43 40 38 36 35 36 36
2 2 2 3 3 4 6 3 3 4 3 1 4 3 6 3 12 14 11 13 14 12 9 8 7 6 6 5 5 5 5 7 7 9 11 11 14 17 19 23 24 25 28 29 31 34 35 36 36 37 38 39 40 39 39 39 40 41 41 41 41 41 41 41 42 41 41 40 39 39 38 37 36 37 36 34 35 35 34 34 35 36 37 38 38 39 39 42 43 42 42 40 36 36 35 36 38
2 2 3 2 2 3 5 3 5 6 3 1 5 3 4 3 10 11 9 10 12 12 9 8 7 6 6 5 5 5 4 5 6 9 12 13 16 19 21 24 26 27 29 30 32 34 35 35 36 37 39 39 40 39 40 40 42 42 43 43 42 41 41 41 41 40 41 40 39 40 40 39 38 38 37 35 35 34 34 34 34 36 37 37 38 40 40 39 41 41 41 41 37 34 35 35 38
3 2 2 3 2 3 3 4 2 6 2 1 3 3 2 2 8 9 8 10 11 11 9 8 8 6 6 4 5 5 4 3 3 6 12 16 19 20 22 25 26 27 29 30 32 34 34 35 36 37 38 38 39 40 41 42 43 44 44 44 43 42 41 41 41 41 41 40 39 39 38 40 41 40 38 36 35 34 34 34 34 36 38 38 39 39 41 40 39 38 37 40 40 36 36 36 36
4 2 1 4 3 2 2 5 4 2 2 3 3 4 4 4 7 8 7 10 11 11 10 9 8 6 6 5 5 4 3 1 2 4 12 19 21 22 23 25 26 26 28 29 31 32 33 35 36 36 37 37 39 40 42 42 42 43 43 44 44 44 43 42 42 41 41 41 39 38 38 40 42 40 38 38 36 34 33 33 34 37 38 38 39 39 39 41 41 41 40 39 41 39 37 37 36
4 4 3 4 4 3 4 4 3 2 3 4 4 5 6 5 6 7 7 8 10 10 9 8 7 6 6 5 5 4 4 1 1 5 14 19 21 22 22 24 25 26 27 29 31 32 33 34 35 36 36 37 40 41 41 41 42 42 43 45 45 45 45 45 43 42 42 42 40 39 40 41 41 39 38 39 37 34 32 32 35 37 37 37 37 39 38 40 42 42 43 41 39 41 40 40 39
6 6 4 4 5 5 6 5 3 3 3 6 6 6 5 6 7 6 7 7 8 9 8 7 6 6 5 5 5 4 4 1 3 6 12 17 19 20 21 23 25 26 28 30 31 32 33 34 35 35 35 37 40 42 42 42 42 42 43 44 43 44 45 45 44 42 43 43 41 40 41 41 40 40 39 40 39 34 31 32 34 37 36 35 34 35 37 38 41 41 44 45 40 36 38 40 39
4 4 4 6 6 6 6 4 4 2 3 6 6 6 5 6 8 8 7 7 8 9 9 7 6 6 5 5 5 4 4 1 4 5 6 13 18 19 21 23 25 27 28 30 31 31 32 33 34 35 36 39 40 41 41 40 40 40 41 42 43 46 45 43 42 43 43 43 42 40 41 41 41 41 40 41 39 34 31 31 32 35 35 33 33 34 37 38 36 41 43 43 43 35 32 37 39
4 4 4 6 5 7 8 5 4 1 1 5 5 5 7 7 8 8 8 9 10 10 10 8 7 7 5 6 6 4 3 0 3 2 4 12 17 19 21 23 26 27 28 29 29 30 32 32 33 36 38 40 40 39 38 38 40 40 40 40 42 45 44 40 41 43 44 44 43 41 41 41 41 41 41 40 38 34 31 31 31 32 33 33 34 34 36 38 34 36 40 36 39 38 34 37 41
4 4 3 5 5 5 6 3 2 1 1 4 5 6 8 8 7 8 10 9 8 7 9 9 8 8 5 6 6 4 2 1 3 4 5 11 15 17 20 24 25 24 25 27 28 30 31 31 34 37 39 40 40 39 37 39 43 42 40 39 41 42 44 44 46 47 46 45 44 41 40 40 40 41 41 39 37 35 32 32 31 30 32 32 32 34 33 35 36 33 38 38 35 33 30 37 47
5 4 3 5 4 2 4 3 3 4 3 4 6 8 7 5 3 5 7 5 5 5 8 8 7 8 7 7 6 5 4 3 4 5 5 8 12 15 18 21 21 22 25 27 28 30 31 33 36 38 39 40 39 38 39 42 44 42 41 43 44 43 44 47 48 47 44 42 42 41 39 40 41 40 39 38 39 38 35 32 31 29 30 30 30 32 31 31 36 36 36 43 40 30 23 29 45
5 6 6 6 5 4 6 3 5 6 5 5 7 8 6 6 7 6 3 3 6 6 7 7 6 7 7 6 6 6 5 5 4 4 4 5 8 11 15 17 19 21 24 26 28 30 32 34 36 36 37 37 37 38 40 43 43 42 44 46 46 44 42 40 37 38 39 40 42 42 41 40 40 39 39 40 41 39 35 33 30 28 29 29 28 29 30 31 33 37 36 41 43 36 28 27 35
5 5 7 6 5 4 5 4 5 4 5 4 2 5 6 5 10 8 4 5 6 6 7 8 6 6 6 6 6 5 5 5 4 3 3 3 6 9 12 16 20 22 24 26 29 31 33 34 34 34 35 36 38 40 42 43 42 42 42 41 40 39 37 35 30 31 37 42 45 46 45 43 41 40 39 40 40 39 37 33 30 27 28 27 26 27 30 30 30 35 37 35 39 37 31 28 30
4 5 5 5 4 2 4 2 2 2 4 3 3 2 6 2 6 9 7 8 9 6 7 8 7 6 6 6 5 6 5 4 3 3 3 3 6 7 10 16 21 22 24 26 29 31 32 33 31 32 35 37 38 40 42 41 40 41 41 39 38 34 34 36 36 35 38 42 44 43 42 41 41 41 40 40 40 39 37 33 29 26 27 28 25 26 30 30 28 31 35 34 39 45 36 27 30
4 4 5 4 2 3 5 3 3 4 3 4 2 4 6 6 6 9 10 9 8 8 8 8 7 7 7 6 6 6 6 5 4 3 4 5 6 7 11 17 21 22 23 26 28 30 31 31 31 32 35 36 37 39 40 39 37 38 39 39 39 36 34 37 40 40 39 40 41 39 38 39 40 41 40 39 38 36 35 35 31 26 25 28 27 25 29 31 29 28 32 38 38 47 47 37 36
5 5 5 3 5 6 5 4 6 3 3 5 5 4 5 8 4 5 9 9 9 11 11 9 8 8 7 7 6 6 6 5 5 4 5 6 5 9 13 19 22 22 23 26 28 29 30 31 31 33 34 35 36 38 38 37 36 36 35 36 37 37 37 38 41 41 39 39 40 39 39 39 39 40 40 38 38 39 40 38 32 24 24 27 27 26 28 31 31 28 27 36 38 33 44 43 41
4 4 3 3 4 6 4 5 4 1 1 7 6 7 4 6 2 4 6 7 10 11 10 8 8 8 8 7 7 6 5 4 4 5 6 5 5 11 16 19 21 21 24 27 28 29 30 32 33 33 34 35 36 37 37 36 36 35 34 36 37 38 38 39 40 40 39 38 37 36 36 36 37 38 38 39 41 42 42 37 30 25 25 27 27 24 25 29 30 30 27 30 37 32 33 40 40
1 1 2 4 4 3 1 2 0 2 4 8 6 9 7 5 3 6 6 6 9 11 9 8 8 8 8 7 6 5 5 5 4 5 7 4 7 13 18 19 19 21 24 27 29 30 31 32 33 34 35 35 35 36 37 36 36 35 35 36 38 38 37 37 37 39 39 36 33 33 35 36 37 37 37 37 40 40 38 36 31 27 26 26 27 24 22 26 29 29 29 28 33 38 32 35 40
3 3 3 4 5 3 4 3 3 1 6 6 4 6 7 6 5 6 6 4 8 14 12 12 10 8 8 6 6 6 5 5 4 6 6 2 9 14 17 17 18 20 23 26 28 30 31 32 32 34 36 36 36 37 37 37 36 35 36 37 37 37 36 35 36 39 38 34 32 32 33 35 36 36 36 36 37 39 38 37 35 28 26 26 26 25 22 23 28 29 28 27 28 36 39 32 38
4 3 4 3 5 3 3 3 0 3 6 4 1 0 4 8 7 6 8 5 8 13 12 12 11 8 8 6 6 5 4 5 5 5 2 4 8 11 14 14 16 18 21 25 28 30 31 32 33 34 36 36 38 39 39 38 37 36 36 37 37 36 36 36 36 36 36 34 33 32 32 34 36 35 36 37 38 38 39 39 35 28 25 27 26 26 23 22 25 27 27 27 26 31 37 36 35
4 3 3 2 1 3 4 3 2 4 6 4 2 1 3 5 5 6 8 6 8 10 10 10 9 9 8 7 6 6 5 6 6 2 3 5 6 10 12 13 14 17 22 25 28 30 31 32 33 35 37 38 38 40 40 40 39 37 37 37 37 36 36 36 36 36 36 36 35 34 33 33 34 35 36 38 38 39 39 40 37 32 28 28 27 26 24 22 23 25 25 25 27 29 32 37 37
4 4 5 4 4 2 4 3 4 6 6 4 2 2 4 3 3 4 5 7 7 8 8 8 8 8 7 6 6 6 6 5 2 3 5 4 7 11 12 13 14 17 22 25 27 29 30 32 34 35 37 38 38 39 41 42 41 40 39 39 38 36 35 36 38 39 38 37 37 35 34 32 34 36 37 38 39 39 39 40 39 35 31 28 27 26 24 23 22 24 25 25 27 30 29 33 40
2 3 4 2 5 4 3 3 4 2 6 5 3 3 5 3 3 1 6 7 7 7 7 8 7 7 6 6 6 6 4 2 3 4 2 4 8 11 12 13 15 19 23 26 27 29 30 32 35 36 37 38 38 39 40 41 41 40 40 40 38 37 37 38 40 40 39 37 37 36 34 34 37 38 38 39 40 40 39 39 39 36 33 29 28 27 24 23 22 22 24 26 26 28 29 31 37
1 2 2 4 4 4 2 3 1 2 4 6 3 4 4 1 2 2 7 7 7 7 7 8 8 7 7 6 6 5 3 1 2 1 2 5 7 11 11 10 14 20 24 26 28 29 30 32 34 35 38 39 40 41 41 39 39 40 41 40 39 38 39 39 39 40 40 40 39 38 37 38 39 40 40 40 40 40 39 38 39 37 35 32 28 27 24 22 22 21 21 25 26 27 28 29 34
4 3 4 3 2 3 2 1 3 2 4 6 3 6 6 1 2 4 6 8 9 8 7 8 8 7 7 6 6 4 3 2 1 2 3 5 7 11 10 10 15 20 24 27 28 29 31 32 32 33 36 37 39 41 41 38 37 39 40 40 40 40 39 39 39 40 42 42 42 41 40 40 40 40 41 39 38 38 39 38 38 38 36 35 30 26 25 22 21 21 21 23 25 26 27 28 31
3 2 2 2 1 2 2 2 2 1 6 7 2 5 7 5 5 7 11 13 12 9 8 8 8 7 6 6 5 3 2 3 3 3 4 5 8 10 10 11 17 21 23 25 26 29 31 32 32 32 34 34 35 38 38 37 37 37 38 39 40 40 40 40 41 42 43 44 43 42 40 40 40 40 39 37 36 37 39 39 38 37 35 35 33 27 25 23 21 21 20 21 24 24 26 27 30
2 1 1 1 2 3 2 2 2 2 5 7 5 6 4 6 7 12 16 15 14 11 8 8 8 7 7 6 5 4 4 5 4 4 4 5 7 9 9 13 18 21 23 24 25 29 31 32 32 33 34 35 35 37 37 37 38 37 39 40 41 41 41 42 43 42 43 43 42 41 40 40 39 39 38 37 37 38 38 38 36 35 34 33 33 30 25 23 22 21 20 19 22 23 25 27 28
3 2 2 2 2 1 1 2 3 3 5 4 5 9 6 4 4 10 14 14 14 12 9 8 7 7 7 6 6 5 5 4 4 4 4 6 6 7 9 14 19 20 22 23 25 28 30 31 32 33 34 35 36 37 38 39 39 39 40 42 44 44 43 43 43 42 43 43 42 40 39 39 39 38 39 39 39 39 38 37 35 34 33 32 33 33 28 23 21 21 20 18 20 22 24 27 26
6 6 6 7 5 3 2 5 3 3 5 4 3 12 10 3 3 6 9 11 12 11 9 7 7 8 8 6 6 6 5 5 5 5 5 5 5 6 11 16 19 20 22 24 26 27 29 31 33 33 33 34 35 37 38 39 40 40 42 44 46 45 44 44 44 42 41 41 41 41 40 40 39 39 39 39 39 40 37 36 35 34 34 33 33 33 30 24 20 20 21 19 19 21 23 26 25
Wind_Direction
358 19 41 9 338 336 323 100 71 353 74 67 335 78 6 23 77 56 31 21 41 352 15 37 8 50 50 115 130 89 70 22 35 92 85 124 37 20 13 11 11 11 6 2 1 351 347 353 354 344 240 224 232 231 228 246 253 240 242 246 247 248 246 243 243 241 239 240 242 241 243 248 249 252 257 261 262 264 266 267 271 274 278 277 275 277 275 271 270 267 262 257 251 251 249 237 235
8 14 44 2 320 337 303 112 84 12 58 44 359 73 352 19 50 63 67 65 104 267 330 23 34 35 14 107 107 79 44 20 38 97 96 40 18 15 17 17 18 16 6 354 0 5 352 351 354 352 308 261 255 255 245 252 260 251 249 251 255 258 256 253 249 244 243 245 246 245 249 252 252 255 257 258 260 261 259 260 266 271 271 270 273 273 269 267 268 267 264 259 252 247 249 244 237
22 23 39 10 312 2 7 38 83 70 72 84 12 338 0 49 35 67 111 104 141 294 15 33 71 37 18 42 71 101 60 33 28 69 94 26 13 8 13 19 19 17 14 0 355 8 359 353 355 356 343 302 277 275 271 266 270 269 265 260 260 262 263 262 260 256 252 252 251 251 255 256 255 258 259 258 261 262 261 261 264 268 267 267 273 272 265 264 265 265 262 259 255 247 245 245 241
29 27 11 16 20 27 47 51 120 113 95 129 57 326 28 70 16 21 135 120 99 57 44 35 59 347 64 42 38 98 66 63 33 35 77 21 15 8 15 23 23 25 29 23 7 10 5 2 -0 358 355 333 301 287 282 276 277 277 275 270 269 267 268 268 268 267 263 261 260 258 257 256 257 258 258 258 258 260 262 262 261 261 258 260 269 267 258 258 258 258 258 257 255 249 245 243 241
16 16 342 32 79 26 73 62 67 97 105 160 113 315 34 73 16 13 234 116 81 66 62 56 38 319 53 41 24 50 351 109 38 34 48 20 23 25 32 36 35 37 36 37 26 15 8 2 358 354 351 340 321 301 289 281 277 278 278 272 271 270 271 272 271 270 267 268 268 265 262 260 259 257 258 258 259 259 258 258 258 258 252 254 264 267 263 260 256 252 250 252 252 250 248 243 240
1 11 31 95 104 145 85 54 61 88 144 154 118 214 79 61 15 30 353 57 69 60 67 83 98 358 75 73 61 52 8 46 28 29 37 28 34 39 41 41 41 40 37 37 29 21 12 2 356 354 353 348 339 323 309 295 283 280 283 279 275 272 272 275 277 273 269 269 270 270 268 267 265 261 258 257 258 260 259 259 259 259 258 258 261 265 267 266 262 259 254 249 246 246 251 248 240
356 4 64 57 13 86 82 96 143 116 34 110 129 166 93 44 347 48 33 69 56 33 48 65 108 84 72 94 78 48 37 51 44 32 38 38 40 39 39 39 38 36 35 33 29 26 20 14 10 6 4 2 358 351 342 328 309 292 285 284 282 280 278 279 281 278 272 270 270 270 269 269 270 266 262 260 258 259 261 261 258 258 260 262 262 263 264 264 263 263 261 256 250 246 248 251 244
350 357 71 77 27 26 79 100 164 159 72 107 131 126 98 57 19 52 20 96 104 48 29 355 65 81 51 67 80 29 32 41 40 40 44 45 42 41 40 39 37 35 34 32 29 27 23 21 17 14 10 7 4 2 359 355 346 326 301 287 283 283 284 283 282 280 277 274 271 270 269 269 271 267 263 262 259 257 258 261 260 258 259 260 261 262 263 262 260 260 261 261 258 252 246 246 246
349 63 36 75 57 11 57 78 44 109 86 95 95 85 108 88 71 66 27 40 97 93 17 340 63 91 82 66 73 21 23 30 46 52 54 52 48 49 48 46 44 40 39 37 35 33 31 27 23 19 13 9 6 3 1 359 357 352 336 306 287 283 285 285 284 281 279 276 274 273 272 271 269 266 263 262 259 256 256 259 261 260 259 259 259 260 261 259 257 257 257 258 257 258 252 244 243
53 60 72 73 54 17 21 111 75 100 111 115 101 94 127 74 81 65 62 53 90 90 5 359 68 80 88 65 59 18 12 28 50 54 54 55 53 53 51 49 45 42 41 39 37 36 35 33 30 26 20 15 10 6 2 358 356 354 351 338 313 293 289 288 286 283 281 279 277 275 274 273 271 268 267 266 262 259 257 256 257 257 258 259 260 259 259 258 255 254 253 254 254 256 257 250 242
36 349 88 73 43 27 50 136 126 127 137 115 73 43 106 103 96 45 63 79 75 80 18 30 76 95 91 74 62 14 14 36 49 52 52 54 53 52 51 49 44 41 41 38 37 35 35 34 32 29 25 21 16 11 6 1 357 353 350 347 339 324 309 300 294 289 286 283 281 279 276 274 274 271 268 267 264 263 261 257 254 253 255 259 262 261 259 257 252 252 252 252 252 253 254 255 247
47 334 62 77 108 201 205 146 143 130 71 59 25 308 101 84 88 45 62 93 69 70 44 34 106 124 97 84 60 11 21 36 47 55 55 54 53 51 49 48 45 41 39 39 37 34 34 33 30 27 25 23 20 17 12 6 0 356 351 346 343 338 331 322 312 303 295 289 285 283 281 278 277 275 271 268 265 265 263 261 256 251 253 257 262 262 260 256 250 248 250 251 251 252 251 252 251
61 0 77 96 191 193 189 134 150 120 38 38 186 243 115 73 81 108 100 95 70 70 27 327 158 99 89 102 69 9 20 32 48 59 57 55 52 50 48 46 45 41 38 38 36 34 33 32 28 25 26 26 23 21 18 13 6 0 355 349 343 338 334 332 328 322 312 302 293 286 282 280 278 277 276 274 269 266 264 263 257 252 253 256 262 262 260 256 250 247 246 250 249 249 249 249 250
79 124 103 173 276 152 182 116 126 105 77 233 209 267 96 85 116 113 109 87 55 94 44 4 90 96 79 106 60 7 19 33 51 59 58 57 51 48 46 43 42 39 35 34 34 31 29 30 29 24 24 27 25 23 20 16 11 5 360 353 347 341 336 332 330 328 324 317 309 299 289 283 278 275 273 273 271 268 265 264 259 256 255 257 261 261 259 256 250 248 246 247 248 247 247 248 249
113 83 97 96 334 342 219 99 115 111 129 234 45 104 87 69 131 87 102 106 44 48 59 24 31 84 66 88 73 29 36 43 55 59 58 56 50 46 42 40 39 37 34 31 31 29 25 24 26 24 21 24 24 23 21 17 14 10 4 359 353 347 341 335 331 327 325 322 317 312 305 295 285 278 273 270 270 269 266 263 260 259 258 258 261 260 258 255 250 247 246 246 247 247 246 248 249
103 97 72 49 316 327 338 78 99 97 123 215 44 93 91 349 94 89 109 118 61 33 63 36 39 81 83 89 94 68 54 52 56 57 55 50 46 43 37 36 34 32 31 28 27 26 24 20 21 21 16 18 20 20 18 16 13 11 8 4 358 352 346 340 334 329 325 322 318 314 311 307 299 289 279 271 267 267 266 263 261 258 258 259 261 260 257 255 251 247 246 246 247 248 247 247 248
57 75 55 3 292 350 300 51 98 116 116 338 7 46 107 336 4 89 52 84 86 66 70 65 66 83 87 91 90 73 62 55 54 53 49 44 40 37 33 30 29 28 27 25 24 22 22 19 15 16 12 9 13 16 15 12 10 9 8 5 2 356 351 344 338 334 330 325 321 317 312 308 306 301 293 280 270 266 265 264 261 258 258 259 260 259 257 255 252 249 247 246 247 249 248 247 246
48 72 57 326 256 97 244 56 85 120 96 32 337 53 111 116 338 63 67 82 96 86 77 82 78 75 80 87 82 68 62 56 53 51 46 41 36 34 31 27 25 25 24 22 21 19 19 18 12 12 11 4 4 10 11 10 7 6 5 2 360 356 353 348 340 337 333 330 326 321 316 310 307 305 302 293 279 269 266 265 262 259 257 258 258 258 257 255 253 251 248 247 248 249 249 248 245
69 96 56 269 224 215 154 87 46 82 111 61 357 90 102 116 225 70 81 105 104 95 87 87 83 76 76 76 72 65 61 57 53 53 49 42 37 32 28 25 22 22 24 21 19 18 17 16 11 8 9 3 1 5 5 5 4 2 1 359 356 352 351 349 343 338 334 330 327 324 319 314 310 305 301 299 291 278 270 267 265 261 258 257 258 258 257 255 254 253 251 248 247 248 248 248 246
95 94 42 250 235 274 78 94 96 106 121 86 350 56 84 323 260 92 113 111 89 104 119 98 92 88 80 67 66 66 62 58 53 52 50 44 39 33 27 23 19 17 20 20 16 16 16 13 10 6 7 4 0 2 1 1 -0 356 356 357 353 350 348 346 343 340 335 332 329 325 320 316 312 306 301 297 293 284 275 270 266 261 258 257 258 257 254 253 252 252 250 248 246 247 246 246 245
97 112 188 244 287 321 321 81 109 107 94 84 4 43 31 318 4 103 130 102 62 88 114 113 112 104 95 81 71 71 68 63 56 51 49 46 42 36 30 24 19 16 15 16 13 12 12 10 7 5 4 4 1 360 358 357 356 351 352 353 348 346 345 342 341 339 335 332 329 325 321 316 312 308 305 298 292 284 276 270 266 262 258 256 256 252 250 249 248 247 246 245 244 245 244 243 242
14 239 208 247 24 329 309 43 76 73 62 47 46 50 340 317 33 68 106 101 94 101 105 109 113 112 105 96 82 75 70 64 57 51 46 43 42 37 30 24 20 17 13 11 9 8 8 6 3 3 3 4 0 358 355 353 353 349 348 349 345 343 342 340 340 338 333 329 326 325 322 318 314 311 308 304 299 289 276 267 264 262 259 256 254 248 246 246 245 243 242 242 242 242 242 241 240
84 280 265 331 40 5 324 29 49 57 61 34 37 28 314 73 62 62 85 96 112 112 113 109 106 108 100 90 81 71 64 61 58 52 44 38 34 33 28 21 17 14 12 9 4 3 5 4 0 360 3 1 358 356 353 351 351 348 346 345 343 341 340 338 337 334 330 329 327 325 323 320 317 314 311 307 304 298 288 278 268 262 256 254 253 247 244 243 243 242 240 241 241 241 241 240 238
129 257 280 333 6 4 352 33 45 63 73 5 23 27 333 117 99 77 89 103 114 113 111 107 105 101 93 85 78 70 67 63 60 57 49 40 30 26 23 17 13 9 9 8 3 1 2 2 359 358 360 358 355 354 352 351 349 346 344 343 341 339 337 335 332 331 329 330 329 327 325 322 318 316 314 311 307 303 299 293 284 273 260 252 249 247 244 241 241 240 239 239 238 239 239 238 236
136 222 266 321 328 311 15 40 47 62 72 25 50 26 323 135 109 93 110 119 119 118 110 106 104 96 90 87 85 80 73 64 60 56 49 41 28 21 16 10 7 6 5 3 1 1 1 360 359 357 356 355 353 352 351 350 347 344 343 341 339 337 335 331 329 329 329 328 327 328 327 325 322 320 318 315 313 308 304 300 291 282 271 257 247 243 242 240 238 238 237 237 236 236 237 237 234
181 171 292 2 310 277 50 47 62 83 95 52 60 16 328 114 100 91 131 135 129 121 111 109 105 97 95 94 95 92 81 66 56 50 46 37 25 17 11 5 3 2 -0 359 359 359 358 357 358 357 353 352 351 350 349 347 344 343 341 339 337 335 333 329 327 328 326 325 325 326 327 326 323 322 321 319 316 313 309 305 295 283 274 265 252 243 239 237 237 236 235 234 234 234 235 236 231
187 102 310 294 273 261 140 139 126 118 191 63 67 354 275 191 104 111 163 149 135 119 109 111 104 102 105 103 103 97 90 73 57 50 43 31 21 13 7 3 0 359 357 357 358 358 357 355 355 354 351 350 349 348 346 344 342 340 338 336 334 333 331 328 325 324 323 322 321 322 324 322 319 318 319 318 317 314 312 308 301 288 276 269 260 252 247 240 237 236 234 232 232 232 232 233 229
123 73 335 304 269 229 148 146 175 170 299 41 52 347 265 267 116 147 171 160 136 120 117 117 109 112 111 110 111 99 97 80 60 50 41 27 18 9 4 2 358 358 358 356 356 358 357 354 353 352 350 348 347 345 343 341 340 338 336 334 332 329 328 326 322 321 320 318 317 318 319 318 317 317 317 318 316 314 312 309 305 295 281 271 264 257 252 247 241 236 233 230 229 230 229 229 227
106 93 0 323 32 98 228 188 189 158 261 311 36 11 303 254 140 153 164 155 134 120 124 126 119 123 117 112 109 96 98 86 64 50 44 28 17 9 4 4 360 359 359 357 357 358 356 354 352 351 349 347 345 343 340 339 336 334 333 331 329 327 325 322 319 317 316 314 313 314 314 315 314 314 315 316 316 313 311 309 306 301 290 277 266 259 254 250 242 233 227 225 226 226 225 223 222
87 96 124 45 35 318 249 220 191 150 236 295 51 334 278 215 148 157 162 147 132 123 130 132 126 128 127 123 111 98 94 91 74 54 43 27 18 10 7 6 5 2 360 359 359 357 355 354 353 350 348 346 343 341 338 336 333 331 329 327 326 324 322 320 316 314 313 310 309 309 310 311 310 310 311 312 313 312 310 308 306 303 298 288 272 260 255 249 241 230 222 219 221 220 218 217 214
70 60 68 95 85 273 259 234 177 163 255 165 94 268 261 175 155 164 164 146 133 130 134 130 130 129 130 131 121 111 88 88 80 53 37 25 17 11 11 10 7 4 2 1 360 357 355 354 352 348 346 343 341 339 336 333 330 328 326 324 322 320 319 316 313 312 310 307 305 305 305 306 306 306 306 308 310 310 310 308 305 303 302 298 282 263 255 248 239 230 220 214 214 214 213 212 210
50 78 319 346 111 264 279 279 169 169 264 127 122 259 268 174 169 170 157 143 131 131 139 133 132 128 124 126 122 112 78 75 70 50 35 24 17 11 13 11 7 5 3 2 358 356 354 352 350 346 344 342 340 337 334 331 328 326 323 321 319 317 315 312 310 309 307 304 302 301 301 302 303 303 301 303 306 306 308 307 305 304 303 302 293 271 255 247 238 228 218 211 208 207 208 207 207
354 98 249 280 317 304 287 304 216 170 219 225 169 215 255 209 183 175 151 144 135 132 140 135 133 129 123 120 112 109 83 52 33 46 37 28 20 13 12 9 5 3 1 359 356 353 351 349 346 343 341 339 337 335 332 329 326 324 321 319 316 314 312 310 308 307 305 302 299 297 297 299 300 299 298 300 302 301 305 307 304 306 305 302 300 282 255 244 240 230 217 209 207 205 203 203 203
323 24 297 275 289 292 268 301 295 186 197 242 224 216 237 215 177 167 156 150 139 138 143 139 138 133 128 122 111 122 127 68 317 43 41 32 23 15 11 6 2 0 358 356 353 350 347 344 342 339 338 336 335 333 330 327 324 322 319 317 315 314 312 310 308 306 304 301 298 294 294 297 296 294 295 297 297 296 301 305 305 309 310 304 303 293 265 244 241 233 218 208 206 203 200 199 197
260 279 281 294 296 265 254 271 267 189 212 243 246 259 251 210 176 164 166 161 142 142 145 141 141 135 132 128 123 143 152 173 305 55 45 31 21 15 9 4 360 357 355 353 351 348 344 342 339 337 336 336 334 331 328 325 323 322 319 318 316 314 313 311 308 304 302 299 296 294 295 296 293 289 291 295 293 292 297 300 304 310 311 307 303 300 280 250 237 229 217 208 204 202 200 197 194
218 246 226 259 282 271 253 249 243 182 207 250 237 247 234 194 203 189 169 158 141 141 140 139 141 136 132 129 137 153 149 77 23 55 45 26 16 11 6 2 358 355 353 351 349 347 344 341 338 337 336 335 332 330 328 327 325 324 321 319 316 314 313 310 306 304 302 298 294 294 295 294 291 287 287 292 290 287 292 295 302 309 309 308 303 302 293 263 237 224 215 206 199 198 198 194 189
216 249 245 252 256 270 267 253 263 196 188 249 226 233 245 211 211 198 172 153 146 148 146 146 142 139 142 137 144 150 152 114 38 57 38 18 12 9 5 360 356 353 352 350 348 346 344 342 338 336 335 333 331 329 327 327 326 325 321 318 316 314 312 309 307 305 303 298 294 293 294 293 289 286 285 288 285 283 288 290 297 307 308 308 304 299 296 281 248 221 212 203 193 189 189 190 184
240 239 250 266 249 259 265 232 234 207 183 263 246 251 265 251 229 196 172 164 166 166 155 152 149 148 152 142 148 150 152 262 10 7 3 12 10 7 2 357 355 352 351 349 347 346 344 343 340 336 334 332 329 327 326 326 326 323 319 316 316 315 313 312 310 308 305 300 295 292 292 291 288 286 285 284 281 280 285 287 293 303 306 306 306 302 294 289 270 230 210 199 193 188 184 184 178
236 246 261 272 255 269 281 244 208 344 288 268 275 266 256 257 239 191 180 177 175 170 153 151 150 147 155 147 148 149 146 282 320 317 345 8 6 3 359 356 354 351 350 349 347 346 344 343 341 336 333 331 328 327 328 328 326 323 321 318 318 316 313 312 310 308 307 303 298 295 292 290 288 287 285 282 280 280 281 284 290 297 303 306 307 306 295 288 286 259 219 197 191 193 187 180 177
235 241 252 261 258 270 279 287 320 317 277 253 275 274 251 239 212 182 193 172 140 145 142 147 152 150 163 163 156 156 166 221 278 303 331 360 358 357 355 351 351 351 351 350 348 347 345 341 338 335 332 330 328 328 329 329 327 324 322 319 317 314 310 310 308 306 305 304 303 300 296 291 287 285 284 282 282 280 278 280 286 291 299 306 307 305 300 287 286 279 241 204 188 186 186 181 181
254 222 221 247 252 237 240 279 327 324 310 279 280 289 263 194 181 187 192 131 132 146 139 144 162 161 157 153 162 169 173 197 222 269 299 338 345 344 348 348 351 353 351 350 349 347 342 338 335 332 332 331 329 329 330 330 328 325 324 322 321 318 313 312 311 310 310 309 307 305 302 298 290 283 282 283 280 276 276 277 280 286 293 304 308 304 302 292 284 285 262 217 190 180 177 179 185
285 239 219 221 205 223 262 329 359 341 310 285 245 292 287 197 183 188 171 157 166 162 152 160 175 172 154 148 169 181 186 196 196 219 259 309 319 325 344 353 354 351 350 351 349 344 339 335 333 332 332 332 331 331 331 331 329 327 326 324 323 320 315 312 311 312 313 312 308 302 300 301 297 289 285 283 279 275 276 275 273 280 290 299 307 308 305 299 289 287 271 230 196 184 180 175 181
283 248 186 164 148 203 274 323 17 273 266 274 139 223 281 255 186 194 181 180 184 175 173 178 181 178 167 165 173 179 192 202 212 242 262 283 293 316 349 358 355 350 350 350 346 341 337 333 332 332 331 331 332 331 331 330 327 325 323 321 318 313 309 306 307 309 309 309 307 301 298 301 301 297 288 282 279 276 274 272 269 274 287 295 303 310 308 303 294 288 280 252 211 191 185 180 179
246 232 136 130 160 246 248 213 224 239 274 295 205 203 273 279 228 199 178 179 190 189 191 189 184 182 173 174 176 179 193 196 201 245 265 259 281 334 359 359 356 352 349 346 342 338 335 332 331 330 330 330 331 331 329 327 325 322 320 318 315 311 308 306 307 307 307 308 307 305 304 303 304 302 295 285 280 280 277 272 268 269 282 293 300 309 310 308 300 288 283 275 241 199 186 185 183
244 205 157 180 209 230 232 215 239 268 354 284 224 174 262 272 248 175 167 185 204 198 194 189 182 180 175 176 182 185 197 200 193 209 238 253 303 358 4 358 355 351 347 343 339 336 333 332 330 328 329 329 330 330 329 327 325 322 319 317 314 311 309 308 308 306 306 309 307 305 306 304 303 303 302 297 288 283 279 270 262 264 279 289 297 307 311 309 305 295 282 281 272 224 191 186 185
241 188 202 247 233 238 226 219 249 26 337 262 219 167 223 264 235 141 165 210 216 199 188 186 180 179 176 174 187 197 201 211 213 215 233 263 345 4 2 358 353 348 344 340 337 336 333 331 329 328 328 327 328 330 330 327 326 323 320 317 313 310 309 308 308 306 305 306 305 307 309 306 305 304 303 304 297 286 275 265 257 261 274 285 291 301 311 309 306 303 291 281 281 262 212 193 190
213 62 334 328 296 272 153 198 70 65 262 261 223 187 201 267 245 165 184 223 197 177 174 183 181 175 175 177 187 195 197 210 223 230 240 281 8 9 2 356 349 343 340 339 338 335 333 330 329 327 325 325 327 329 330 328 327 325 321 318 314 310 309 308 309 309 307 305 306 310 312 308 305 303 302 304 303 295 279 263 257 262 269 278 287 293 305 308 305 304 299 286 279 276 252 210 198
71 60 33 352 315 351 33 2 54 109 257 263 243 207 197 238 247 196 224 245 170 168 173 176 175 173 177 184 190 190 192 204 217 231 240 323 15 8 360 351 343 338 337 338 337 334 332 330 329 326 324 325 326 328 330 329 328 327 324 321 317 313 310 308 307 308 308 306 307 310 311 310 306 304 303 304 305 305 296 276 258 255 264 272 282 290 296 304 305 303 299 291 277 276 274 243 206
81 78 62 14 329 355 354 313 171 221 249 240 206 152 212 237 249 216 221 222 166 166 165 164 164 168 178 186 193 192 191 204 217 230 261 25 18 360 351 341 335 335 336 337 335 333 331 329 328 326 323 324 326 329 331 330 328 326 325 322 319 316 312 309 306 306 307 306 306 308 309 309 307 304 303 303 303 305 306 292 266 249 260 271 278 287 292 297 303 303 298 292 279 269 275 269 227
137 135 116 122 7 334 288 263 266 273 270 244 195 6 275 260 277 230 197 172 152 147 145 155 157 161 178 188 187 187 193 207 214 211 34 29 1 346 339 330 331 334 336 336 333 332 330 328 327 325 322 324 327 329 330 329 327 325 325 322 319 317 314 312 309 306 307 307 305 304 304 305 304 303 301 300 300 300 303 302 284 260 258 269 275 282 288 293 298 303 299 291 283 269 267 275 254
185 164 134 150 160 218 257 229 249 280 288 263 228 275 236 206 294 266 163 138 135 135 140 150 154 164 176 178 173 182 197 203 182 63 45 6 341 338 330 325 331 335 335 334 332 331 329 327 327 324 323 325 327 329 329 328 326 324 324 323 320 317 314 313 310 307 307 306 304 302 301 302 302 301 299 297 299 299 300 305 297 271 255 262 272 277 283 288 294 301 302 293 286 278 267 271 265
249 136 111 182 178 180 231 208 200 282 306 274 204 222 222 190 319 355 125 133 135 140 148 146 159 176 168 165 174 183 191 171 63 58 23 325 330 332 324 323 332 335 333 331 329 329 327 326 326 325 324 324 326 328 327 325 323 322 323 323 321 319 316 314 311 308 307 305 304 303 301 302 301 299 299 297 298 300 299 305 304 282 260 260 269 273 277 283 290 296 302 298 290 283 273 268 270
204 140 176 224 171 139 214 264 18 45 299 268 199 245 273 347 302 180 141 150 152 157 164 158 173 179 162 170 184 180 163 87 54 87 288 298 317 324 320 323 333 334 331 328 327 327 325 324 325 324 323 324 325 325 324 322 321 321 322 322 321 320 318 315 312 310 308 306 304 303 302 302 301 298 297 297 298 300 300 304 307 295 272 260 264 269 270 277 286 291 297 299 292 286 279 268 270
141 184 218 203 117 103 128 280 342 42 269 266 199 241 257 174 225 214 174 178 181 183 179 171 180 173 167 181 178 165 146 133 210 232 264 286 311 319 318 324 332 331 327 325 324 323 323 322 322 322 322 322 323 324 322 320 320 320 320 320 320 320 317 315 312 310 308 306 303 302 302 301 300 298 297 297 297 301 304 304 306 304 284 263 260 266 268 271 280 286 292 297 292 287 283 270 265
131 208 233 120 168 233 130 156 251 229 267 274 231 243 241 195 190 195 194 196 191 191 184 177 185 176 173 181 169 168 182 189 219 243 259 281 306 314 319 326 328 327 324 323 321 321 322 321 320 320 320 319 321 321 319 317 318 318 317 317 318 317 317 315 312 310 309 307 303 301 301 300 300 299 296 296 298 302 306 305 304 306 296 273 261 262 265 268 275 284 289 294 293 287 283 273 262
57 18 331 75 192 215 160 163 190 201 261 275 291 295 254 199 187 185 196 198 186 185 185 180 190 186 175 172 170 188 200 204 222 234 246 273 299 312 322 325 324 325 323 321 321 321 321 320 319 320 320 319 320 320 318 317 317 317 316 316 317 316 316 315 312 310 308 307 304 302 301 300 299 299 297 296 299 302 305 305 303 305 304 288 271 264 263 265 271 282 287 291 295 289 284 278 265
140 167 201 200 186 172 234 225 158 184 244 257 291 286 257 192 186 185 190 193 182 179 181 184 191 179 170 170 173 185 191 204 223 225 244 273 292 309 321 323 324 324 322 321 321 321 320 319 319 320 320 319 320 320 319 318 317 318 317 317 317 316 315 315 313 310 307 306 306 303 301 301 298 297 298 298 298 300 301 303 303 304 305 297 282 270 264 265 269 279 287 291 296 292 285 283 271
178 185 189 195 192 152 243 256 197 189 234 201 235 271 262 197 178 182 174 180 180 174 174 181 181 169 171 176 172 176 187 203 216 223 249 269 284 311 322 326 328 325 323 323 323 322 320 320 320 321 320 318 318 319 320 319 318 317 317 317 317 315 314 315 313 310 307 305 306 305 302 301 298 296 298 297 297 298 299 301 302 303 301 298 288 274 265 266 269 277 286 291 296 293 286 285 277